Keokuk, IA

3:02 PM CDT on June 26, 2017 (GMT -0500)
Keokuk Municipal

Weather History for KEOK - January, 2012

Change the Weather History Date:

Tuesday, January 24, 2012

  Actual Average Record
Temperature  
Mean Temperature 32 °F -  
Max Temperature 37 °F 38 °F 67 °F (1934)
Min Temperature 26 °F 19 °F -10 °F (1963)
Degree Days  
Heating Degree Days 34    
Moisture  
Dew Point 26 °F    
Average Humidity 78    
Maximum Humidity 93    
Minimum Humidity 65    
Precipitation  
Precipitation 0.00 in - - ()
Sea Level Pressure  
Sea Level Pressure 30.22 in    
Wind  
Wind Speed 6 mph (NNW)    
Max Wind Speed 10 mph    
Max Gust Speed -    
Visibility 10 miles    
Events      
Averages and records for this station are not official NWS values.
T = Trace of Precipitation, MM = Missing Value Source: NWS Daily Summary

Daily Weather History Graph

Daily Weather History Graph

Search for Another Location

Airport or City:

Trip Planner

Search our weather history database for the weather conditions in past years. The results will help you decide how hot, cold, wet, or windy it might be!

Date:

Astronomy

Jan. 24, 2012 Rise Set
Actual Time 7:22 AM CST 5:13 PM CST
Civil Twilight 6:52 AM CST 5:43 PM CST
Nautical Twilight 6:19 AM CST 6:16 PM CST
Astronomical Twilight 5:47 AM CST 6:48 PM CST
Moon 7:51 AM CST (1/24) 7:05 PM CST (1/24)
Length of Visible Light 10h 50m
Length of Day
9h 51m
New Moon, 2% of the Moon is Illuminated
Jan 24
New Moon
Jan 30
First Quarter
Feb 7
Full
Feb 14
Last Quarter
Feb 21
New

Hourly Weather History & Observations

Time (CST) Temp. Windchill Dew Point Humidity Pressure Visibility Wind Dir Wind Speed Gust Speed Precip Events Conditions
12:15 AM 30.2 °F 22.6 °F 26.6 °F 86% 30.04 in 10.0 mi WNW 8.1 mph - N/A   Overcast
12:35 AM 30.2 °F 22.6 °F 26.6 °F 86% 30.05 in 10.0 mi West 8.1 mph - N/A   Overcast
12:55 AM 30.2 °F 21.3 °F 26.6 °F 86% 30.05 in 10.0 mi West 10.4 mph - N/A   Overcast
1:35 AM 30.2 °F 23.4 °F 26.6 °F 86% 30.07 in 10.0 mi West 6.9 mph - N/A   Overcast
1:55 AM 30.2 °F 22.6 °F 26.6 °F 86% 30.07 in 10.0 mi WNW 8.1 mph - N/A   Overcast
2:35 AM 30.2 °F 23.4 °F 26.6 °F 86% 30.09 in 10.0 mi West 6.9 mph - N/A   Overcast
2:55 AM 30.2 °F 23.4 °F 26.6 °F 86% 30.10 in 10.0 mi WNW 6.9 mph - N/A   Overcast
3:15 AM 30.2 °F 22.6 °F 26.6 °F 86% 30.11 in 10.0 mi West 8.1 mph - N/A   Overcast
4:15 AM 30.2 °F 21.9 °F 26.6 °F 86% 30.13 in 10.0 mi WNW 9.2 mph - N/A   Overcast
4:35 AM 30.2 °F 22.6 °F 26.6 °F 86% 30.13 in 10.0 mi WNW 8.1 mph - N/A   Overcast
4:55 AM 30.2 °F 26.7 °F 26.6 °F 86% 30.14 in 10.0 mi NW 3.5 mph - N/A   Overcast
5:15 AM 30.2 °F 23.4 °F 24.8 °F 80% 30.15 in 10.0 mi NW 6.9 mph - N/A   Overcast
5:35 AM 30.2 °F 24.3 °F 24.8 °F 80% 30.16 in 10.0 mi NW 5.8 mph - N/A   Overcast
5:55 AM 30.2 °F 26.7 °F 24.8 °F 80% 30.17 in 10.0 mi NW 3.5 mph - N/A   Overcast
6:15 AM 28.4 °F 20.4 °F 24.8 °F 86% 30.18 in 10.0 mi NW 8.1 mph - N/A   Overcast
6:35 AM 28.4 °F 20.4 °F 24.8 °F 86% 30.19 in 10.0 mi NNW 8.1 mph - N/A   Overcast
6:55 AM 28.4 °F 21.2 °F 24.8 °F 86% 30.19 in 10.0 mi NW 6.9 mph - N/A   Overcast
7:15 AM 28.4 °F 20.4 °F 24.8 °F 86% 30.20 in 10.0 mi North 8.1 mph - N/A   Overcast
7:35 AM 28.4 °F 23.3 °F 24.8 °F 86% 30.21 in 10.0 mi NW 4.6 mph - N/A   Overcast
7:55 AM 28.4 °F 24.6 °F 24.8 °F 86% 30.21 in 10.0 mi North 3.5 mph - N/A   Overcast
8:15 AM 26.6 °F 21.2 °F 23.0 °F 86% 30.22 in 10.0 mi North 4.6 mph - N/A   Mostly Cloudy
8:35 AM 28.4 °F 24.6 °F 24.8 °F 86% 30.22 in 10.0 mi NNW 3.5 mph - N/A   Clear
8:55 AM 28.4 °F 24.6 °F 24.8 °F 86% 30.23 in 10.0 mi NW 3.5 mph - N/A   Clear
9:15 AM 30.2 °F 26.7 °F 24.8 °F 80% 30.23 in 10.0 mi NNW 3.5 mph - N/A   Clear
9:35 AM 30.2 °F 25.4 °F 24.8 °F 80% 30.24 in 10.0 mi North 4.6 mph - N/A   Clear
9:55 AM 32.0 °F 28.7 °F 24.8 °F 75% 30.26 in 10.0 mi North 3.5 mph - N/A   Clear
10:15 AM 32.0 °F 26.4 °F 24.8 °F 75% 30.26 in 10.0 mi NE 5.8 mph - N/A   Clear
10:35 AM 32.0 °F - 24.8 °F 75% 30.28 in 10.0 mi Calm Calm - N/A   Clear
10:55 AM 33.8 °F 29.6 °F 26.6 °F 75% 30.28 in 10.0 mi West 4.6 mph - N/A   Clear
11:15 AM 35.6 °F 31.7 °F 26.6 °F 70% 30.29 in 10.0 mi West 4.6 mph - N/A   Clear
11:35 AM 35.6 °F 31.7 °F 26.6 °F 70% 30.29 in 10.0 mi WNW 4.6 mph - N/A   Clear
11:55 AM 35.6 °F 32.8 °F 26.6 °F 70% 30.28 in 10.0 mi North 3.5 mph - N/A   Clear
12:35 PM 35.6 °F - 26.6 °F 70% 30.29 in 10.0 mi Calm Calm - N/A   Clear
12:55 PM 37.4 °F 34.9 °F 26.6 °F 65% 30.28 in 10.0 mi WNW 3.5 mph - N/A   Clear
1:15 PM 37.4 °F 33.8 °F 26.6 °F 65% 30.28 in 10.0 mi West 4.6 mph - N/A   Clear
1:35 PM 37.4 °F 34.9 °F 26.6 °F 65% 30.27 in 10.0 mi NW 3.5 mph - N/A   Clear
1:55 PM 37.4 °F 34.9 °F 26.6 °F 65% 30.27 in 10.0 mi NNE 3.5 mph - N/A   Clear
2:15 PM 37.4 °F 32.1 °F 26.6 °F 65% 30.26 in 10.0 mi ENE 6.9 mph - N/A   Clear
2:35 PM 37.4 °F 32.8 °F 26.6 °F 65% 30.26 in 10.0 mi East 5.8 mph - N/A   Clear
2:55 PM 37.4 °F 34.9 °F 26.6 °F 65% 30.26 in 10.0 mi East 3.5 mph - N/A   Clear
3:15 PM 37.4 °F - 26.6 °F 65% 30.28 in 10.0 mi Calm Calm - N/A   Clear
3:35 PM 37.4 °F - 26.6 °F 65% 30.28 in 10.0 mi Calm Calm - N/A   Clear
3:55 PM 37.4 °F 34.9 °F 26.6 °F 65% 30.27 in 10.0 mi NE 3.5 mph - N/A   Clear
4:15 PM 37.4 °F 33.8 °F 26.6 °F 65% 30.28 in 10.0 mi ESE 4.6 mph - N/A   Clear
4:35 PM 35.6 °F 32.8 °F 26.6 °F 70% 30.28 in 10.0 mi East 3.5 mph - N/A   Clear
4:55 PM 35.6 °F 32.8 °F 26.6 °F 70% 30.28 in 10.0 mi East 3.5 mph - N/A   Clear
5:15 PM 35.6 °F - 26.6 °F 70% 30.29 in 10.0 mi Calm Calm - N/A   Clear
5:35 PM 33.8 °F - 26.6 °F 75% 30.28 in 10.0 mi Calm Calm - N/A   Clear
5:55 PM 32.0 °F - 26.6 °F 80% 30.29 in 10.0 mi Calm Calm - N/A   Clear
6:15 PM 30.2 °F 24.3 °F 26.6 °F 86% 30.27 in 10.0 mi East 5.8 mph - N/A   Clear
6:35 PM 32.0 °F - 26.6 °F 80% 30.29 in 10.0 mi Calm Calm - N/A   Clear
6:55 PM 32.0 °F 28.7 °F 26.6 °F 80% 30.31 in 10.0 mi South 3.5 mph - N/A   Clear
7:35 PM 28.4 °F 23.3 °F 24.8 °F 86% 30.31 in 10.0 mi ENE 4.6 mph - N/A   Clear
7:55 PM 28.4 °F 24.6 °F 26.6 °F 93% 30.30 in 10.0 mi ENE 3.5 mph - N/A   Clear
8:15 PM 28.4 °F 23.3 °F 26.6 °F 93% 30.30 in 10.0 mi NE 4.6 mph - N/A   Clear
8:35 PM 30.2 °F 24.3 °F 26.6 °F 86% 30.28 in 10.0 mi ENE 5.8 mph - N/A   Clear
8:55 PM 30.2 °F 24.3 °F 26.6 °F 86% 30.27 in 10.0 mi ENE 5.8 mph - N/A   Clear
9:15 PM 28.4 °F 22.2 °F 26.6 °F 93% 30.28 in 10.0 mi East 5.8 mph - N/A   Clear
9:35 PM 28.4 °F 23.3 °F 24.8 °F 86% 30.29 in 10.0 mi East 4.6 mph - N/A   Clear
9:55 PM 28.4 °F 21.2 °F 24.8 °F 86% 30.29 in 10.0 mi East 6.9 mph - N/A   Clear
10:15 PM 28.4 °F 21.2 °F 26.6 °F 93% 30.32 in 10.0 mi SE 6.9 mph - N/A   Clear
10:35 PM 28.4 °F 21.2 °F 26.6 °F 93% 30.30 in 10.0 mi East 6.9 mph - N/A   Clear
10:55 PM 28.4 °F 23.3 °F 26.6 °F 93% 30.32 in 10.0 mi ESE 4.6 mph - N/A   Clear
11:15 PM 28.4 °F 22.2 °F 24.8 °F 86% 30.32 in 10.0 mi ESE 5.8 mph - N/A   Clear
11:35 PM 28.4 °F 21.2 °F 26.6 °F 93% 30.32 in 10.0 mi East 6.9 mph - N/A   Clear
11:55 PM 28.4 °F 22.2 °F 26.6 °F 93% 30.32 in 10.0 mi ESE 5.8 mph - N/A   Clear